| time (UTC) | temp F | wind direction | speed MPH | gust MPH | rain 1hr in | rain 24hr in | rain mn in | humidity % | barometer mb |
| 20260901013516 | 61 | 0.0 | 0.0 | 0.00 | 0.00 | 0.00 | 94 | 1019.7 | |
| 20260901013016 | 61 | 0.0 | 0.0 | 0.00 | 0.00 | 0.00 | 94 | 1019.6 | |
| 20260901012536 | 61 | 0.0 | 0.0 | 0.00 | 0.00 | 0.00 | 94 | 1019.6 | |
| 20260901012016 | 61 | 0.0 | 0.0 | 0.00 | 0.00 | 0.00 | 94 | 1019.7 | |
| 20260901011536 | 61 | 0.0 | 0.0 | 0.00 | 0.00 | 0.00 | 94 | 1019.7 | |
| 20260901011016 | 61 | 0.0 | 0.0 | 0.00 | 0.00 | 0.00 | 93 | 1019.7 | |
| 20260901010516 | 61 | 0.0 | 0.0 | 0.00 | 0.00 | 0.00 | 94 | 1019.6 | |
| 20260901010036 | 61 | 0.0 | 0.0 | 0.00 | 0.00 | 0.00 | 93 | 1019.6 | |
| 20260901005516 | 61 | 0.0 | 0.0 | 0.00 | 0.00 | 0.00 | 93 | 1019.6 | |
| 20260901005016 | 61 | 0.0 | 0.0 | 0.00 | 0.00 | 0.00 | 93 | 1019.6 | |
| 20260901004516 | 62 | 0.0 | 0.0 | 0.00 | 0.00 | 0.00 | 93 | 1019.7 | |
| 20260901004056 | 62 | 0.0 | 0.0 | 0.00 | 0.00 | 0.00 | 92 | 1019.7 | |
| 20260901003516 | 62 | 0.0 | 0.0 | 0.00 | 0.00 | 0.00 | 92 | 1019.7 | |
| 20260901003016 | 62 | 0.0 | 0.0 | 0.00 | 0.00 | 0.00 | 91 | 1019.7 | |
| 20260901002517 | 63 | 0.0 | 0.0 | 0.00 | 0.00 | 0.00 | 92 | 1019.8 | |
| 20260901002036 | 63 | 0.0 | 0.0 | 0.00 | 0.00 | 0.00 | 91 | 1019.7 | |
| 20260901001516 | 63 | 0.0 | 0.0 | 0.00 | 0.00 | 0.00 | 91 | 1019.8 | |
| 20260901001016 | 63 | 0.0 | 0.0 | 0.00 | 0.00 | 0.00 | 90 | 1019.8 | |
| 20260901000516 | 63 | 0.0 | 0.0 | 0.00 | 0.00 | 0.00 | 90 | 1019.8 | |
| 20260901000016 | 64 | 0.0 | 0.0 | 0.00 | 0.00 | 0.00 | 89 | 1019.7 | |
| 20260831235516 | 64 | 0.0 | 0.0 | 0.00 | 0.00 | 0.00 | 89 | 1019.7 | |
| 20260831235016 | 64 | 0.0 | 1.0 | 0.00 | 0.00 | 0.00 | 88 | 1019.7 | |
| 20260831234516 | 64 | 0.0 | 0.0 | 0.00 | 0.00 | 0.00 | 89 | 1019.7 | |
| 20260831234016 | 65 | 0.0 | 0.0 | 0.00 | 0.00 | 0.00 | 88 | 1019.6 | |
| 20260831233516 | 65 | 0.0 | 0.0 | 0.00 | 0.00 | 0.00 | 87 | 1019.7 | |
| 20260831233036 | 65 | 0.0 | 0.0 | 0.00 | 0.00 | 0.00 | 86 | 1019.7 | |
| 20260831232516 | 66 | 0.0 | 0.0 | 0.00 | 0.00 | 0.00 | 86 | 1019.7 | |
| 20260831232016 | 66 | 0.0 | 0.0 | 0.00 | 0.00 | 0.00 | 84 | 1019.7 | |
| 20260831231516 | 66 | 0.0 | 0.0 | 0.00 | 0.00 | 0.00 | 84 | 1019.8 | |
| 20260831231016 | 67 | 0.0 | 0.0 | 0.00 | 0.00 | 0.00 | 83 | 1019.9 | |
| 20260831230557 | 67 | 0.0 | 0.0 | 0.00 | 0.00 | 0.00 | 83 | 1019.9 | |
| 20260831230017 | 67 | 0.0 | 0.0 | 0.00 | 0.00 | 0.00 | 83 | 1020.0 | |
| 20260831225516 | 68 | 0.0 | 0.0 | 0.00 | 0.00 | 0.00 | 81 | 1020.0 | |
| 20260831225037 | 68 | 0.0 | 0.0 | 0.00 | 0.00 | 0.00 | 80 | 1019.9 | |
| 20260831224516 | 68 | 0.0 | 0.0 | 0.00 | 0.00 | 0.00 | 79 | 1020.0 | |
| 20260831224016 | 69 | 0.0 | 0.0 | 0.00 | 0.00 | 0.00 | 78 | 1020.0 | |
| 20260831223517 | 69 | 0.0 | 0.0 | 0.00 | 0.00 | 0.00 | 76 | 1020.1 | |
| 20260831223037 | 70 | 0.0 | 0.0 | 0.00 | 0.00 | 0.00 | 74 | 1020.1 | |
| 20260831222516 | 70 | 0.0 | 1.0 | 0.00 | 0.00 | 0.00 | 70 | 1020.2 | |
| 20260831222016 | 70 | 0.0 | 1.0 | 0.00 | 0.00 | 0.00 | 68 | 1020.1 | |
| 20260831221516 | 70 | 0.0 | 1.0 | 0.00 | 0.00 | 0.00 | 67 | 1020.1 | |
| 20260831221016 | 71 | 0.0 | 1.0 | 0.00 | 0.00 | 0.00 | 67 | 1020.1 | |
| 20260831220516 | 71 | 0.0 | 1.0 | 0.00 | 0.00 | 0.00 | 65 | 1020.1 | |
| 20260831220016 | 72 | 0.0 | 1.0 | 0.00 | 0.01 | 0.00 | 65 | 1020.1 | |
| 20260831215516 | 73 | 315 | 1.0 | 2.0 | 0.00 | 0.01 | 0.00 | 61 | 1020.1 |
| 20260831215016 | 73 | 315 | 1.0 | 2.0 | 0.00 | 0.02 | 0.00 | 61 | 1020.1 |
| 20260831214536 | 74 | 0.0 | 2.0 | 0.00 | 0.02 | 0.00 | 58 | 1020.1 | |
| 20260831214016 | 74 | 0.0 | 2.0 | 0.00 | 0.02 | 0.00 | 62 | 1020.0 | |
| 20260831213516 | 73 | 0.0 | 1.0 | 0.00 | 0.02 | 0.00 | 59 | 1020.1 | |
| 20260831213016 | 74 | 293 | 1.0 | 3.0 | 0.00 | 0.02 | 0.00 | 62 | 1020.1 |
| 20260831212556 | 74 | 0.0 | 1.0 | 0.00 | 0.02 | 0.00 | 62 | 1020.1 | |
| 20260831212016 | 74 | 0.0 | 1.0 | 0.00 | 0.02 | 0.00 | 62 | 1020.1 | |
| 20260831211516 | 73 | 0.0 | 2.0 | 0.00 | 0.02 | 0.00 | 64 | 1020.0 | |
| 20260831211016 | 73 | 293 | 2.0 | 5.0 | 0.00 | 0.02 | 0.00 | 60 | 1020.1 |
| 20260831210516 | 73 | 315 | 1.0 | 4.0 | 0.00 | 0.02 | 0.00 | 61 | 1020.1 |
| 20260831210016 | 74 | 315 | 2.0 | 7.0 | 0.00 | 0.02 | 0.00 | 59 | 1020.1 |
| 20260831205516 | 74 | 0.0 | 0.0 | 0.00 | 0.02 | 0.00 | 63 | 1020.0 | |
| 20260831205036 | 74 | 293 | 1.0 | 3.0 | 0.00 | 0.02 | 0.00 | 61 | 1020.2 |
| 20260831204516 | 73 | 0.0 | 1.0 | 0.00 | 0.02 | 0.00 | 67 | 1020.2 | |
| 20260831204016 | 73 | 338 | 2.0 | 5.0 | 0.00 | 0.02 | 0.00 | 61 | 1020.1 |
| 20260831203516 | 73 | 315 | 2.0 | 7.0 | 0.00 | 0.02 | 0.00 | 65 | 1020.2 |
| 20260831203016 | 73 | 158 | 2.0 | 6.0 | 0.00 | 0.02 | 0.00 | 61 | 1020.3 |
| 20260831202517 | 73 | 135 | 1.0 | 5.0 | 0.00 | 0.02 | 0.00 | 62 | 1020.4 |
| 20260831202016 | 72 | 315 | 2.0 | 4.0 | 0.00 | 0.02 | 0.00 | 63 | 1020.5 |
| 20260831201537 | 72 | 315 | 4.0 | 9.0 | 0.00 | 0.02 | 0.00 | 63 | 1020.5 |
| 20260831201016 | 72 | 270 | 2.0 | 6.0 | 0.00 | 0.02 | 0.00 | 63 | 1020.5 |
| 20260831200516 | 72 | 293 | 2.0 | 4.0 | 0.00 | 0.02 | 0.00 | 60 | 1020.6 |
| 20260831200016 | 72 | 315 | 2.0 | 6.0 | 0.00 | 0.02 | 0.00 | 60 | 1020.6 |
| 20260831195516 | 72 | 315 | 2.0 | 7.0 | 0.00 | 0.02 | 0.00 | 65 | 1020.6 |
| 20260831195016 | 72 | 293 | 2.0 | 9.0 | 0.00 | 0.02 | 0.00 | 60 | 1020.6 |
| 20260831194516 | 72 | 315 | 1.0 | 6.0 | 0.00 | 0.02 | 0.00 | 67 | 1020.6 |
| 20260831194016 | 72 | 315 | 3.0 | 7.0 | 0.00 | 0.02 | 0.00 | 64 | 1020.7 |
| 20260831193516 | 73 | 293 | 1.0 | 4.0 | 0.00 | 0.02 | 0.00 | 63 | 1020.7 |
| 20260831193016 | 72 | 315 | 1.0 | 4.0 | 0.00 | 0.02 | 0.00 | 60 | 1020.7 |
| 20260831192516 | 72 | 315 | 2.0 | 5.0 | 0.00 | 0.02 | 0.00 | 63 | 1020.8 |
| 20260831192036 | 73 | 248 | 1.0 | 4.0 | 0.00 | 0.02 | 0.00 | 61 | 1020.8 |
| 20260831191516 | 72 | 225 | 1.0 | 4.0 | 0.00 | 0.02 | 0.00 | 64 | 1020.8 |
| 20260831191016 | 72 | 315 | 2.0 | 8.0 | 0.00 | 0.02 | 0.00 | 63 | 1020.8 |
| 20260831190536 | 72 | 315 | 2.0 | 6.0 | 0.00 | 0.02 | 0.00 | 67 | 1020.9 |
| 20260831190016 | 72 | 315 | 2.0 | 6.0 | 0.00 | 0.02 | 0.00 | 62 | 1020.8 |
| 20260831185516 | 72 | 315 | 3.0 | 8.0 | 0.00 | 0.02 | 0.00 | 67 | 1020.8 |
| 20260831185016 | 72 | 338 | 3.0 | 7.0 | 0.00 | 0.02 | 0.00 | 65 | 1020.8 |
| 20260831184516 | 73 | 315 | 2.0 | 6.0 | 0.00 | 0.02 | 0.00 | 61 | 1020.9 |
| 20260831184056 | 71 | 0.0 | 3.0 | 0.00 | 0.02 | 0.00 | 71 | 1020.9 | |
| 20260831183516 | 71 | 315 | 3.0 | 7.0 | 0.00 | 0.02 | 0.00 | 68 | 1020.9 |
| 20260831183016 | 71 | 315 | 2.0 | 6.0 | 0.00 | 0.02 | 0.00 | 65 | 1021.0 |
| 20260831182516 | 71 | 315 | 4.0 | 9.0 | 0.00 | 0.02 | 0.00 | 68 | 1021.1 |
| 20260831182016 | 72 | 338 | 3.0 | 7.0 | 0.00 | 0.02 | 0.00 | 65 | 1021.2 |
| 20260831181516 | 72 | 315 | 2.0 | 7.0 | 0.00 | 0.02 | 0.00 | 67 | 1021.2 |
| 20260831181016 | 71 | 315 | 3.0 | 8.0 | 0.00 | 0.02 | 0.00 | 70 | 1021.3 |
| 20260831180516 | 72 | 315 | 3.0 | 9.0 | 0.00 | 0.02 | 0.00 | 70 | 1021.3 |
| 20260831180016 | 72 | 293 | 2.0 | 5.0 | 0.00 | 0.02 | 0.00 | 71 | 1021.3 |
| 20260831175516 | 71 | 248 | 1.0 | 4.0 | 0.00 | 0.02 | 0.00 | 74 | 1021.3 |
| 20260831175016 | 71 | 293 | 2.0 | 7.0 | 0.00 | 0.02 | 0.00 | 69 | 1021.4 |
| 20260831174516 | 71 | 338 | 1.0 | 5.0 | 0.00 | 0.02 | 0.00 | 73 | 1021.4 |
| 20260831174016 | 70 | 315 | 1.0 | 4.0 | 0.00 | 0.02 | 0.00 | 72 | 1021.4 |
| 20260831173516 | 71 | 315 | 3.0 | 8.0 | 0.00 | 0.02 | 0.00 | 70 | 1021.6 |
| 20260831173017 | 70 | 315 | 1.0 | 4.0 | 0.00 | 0.02 | 0.00 | 70 | 1021.5 |
| 20260831172517 | 70 | 315 | 3.0 | 6.0 | 0.00 | 0.02 | 0.00 | 68 | 1021.5 |
| 20260831172016 | 70 | 315 | 2.0 | 6.0 | 0.00 | 0.02 | 0.00 | 70 | 1021.6 |
| 20260831171517 | 70 | 315 | 2.0 | 4.0 | 0.00 | 0.02 | 0.00 | 72 | 1021.6 |
| 20260831171036 | 71 | 270 | 2.0 | 6.0 | 0.00 | 0.02 | 0.00 | 72 | 1021.6 |
| 20260831170517 | 71 | 315 | 1.0 | 5.0 | 0.00 | 0.02 | 0.00 | 67 | 1021.5 |
| 20260831170017 | 71 | 45 | 2.0 | 5.0 | 0.00 | 0.02 | 0.00 | 69 | 1021.6 |
| 20260831165516 | 71 | 68 | 1.0 | 4.0 | 0.00 | 0.02 | 0.00 | 66 | 1021.6 |
| 20260831165016 | 71 | 248 | 1.0 | 4.0 | 0.00 | 0.02 | 0.00 | 66 | 1021.6 |
| 20260831164516 | 72 | 135 | 2.0 | 6.0 | 0.00 | 0.02 | 0.00 | 64 | 1021.6 |
| 20260831164016 | 71 | 45 | 1.0 | 4.0 | 0.00 | 0.02 | 0.00 | 64 | 1021.7 |
| 20260831163516 | 71 | 180 | 3.0 | 6.0 | 0.00 | 0.02 | 0.00 | 63 | 1021.7 |
| 20260831163017 | 71 | 315 | 2.0 | 6.0 | 0.00 | 0.02 | 0.00 | 64 | 1021.8 |
| 20260831162516 | 70 | 270 | 1.0 | 4.0 | 0.00 | 0.02 | 0.00 | 64 | 1021.8 |
| 20260831162016 | 71 | 315 | 2.0 | 6.0 | 0.00 | 0.02 | 0.00 | 65 | 1021.8 |
| 20260831161516 | 71 | 315 | 1.0 | 4.0 | 0.00 | 0.02 | 0.00 | 67 | 1021.9 |
| 20260831161016 | 72 | 315 | 2.0 | 9.0 | 0.00 | 0.02 | 0.00 | 68 | 1021.9 |
| 20260831160517 | 71 | 158 | 1.0 | 5.0 | 0.00 | 0.02 | 0.00 | 70 | 1022.0 |
| 20260831160016 | 70 | 0.0 | 2.0 | 0.00 | 0.02 | 0.00 | 74 | 1022.0 | |
| 20260831155516 | 70 | 338 | 2.0 | 5.0 | 0.00 | 0.02 | 0.00 | 71 | 1022.1 |
| 20260831155016 | 70 | 225 | 1.0 | 6.0 | 0.00 | 0.02 | 0.00 | 74 | 1022.0 |
| 20260831154536 | 70 | 90 | 1.0 | 8.0 | 0.00 | 0.02 | 0.00 | 71 | 1022.1 |
| 20260831154037 | 70 | 293 | 2.0 | 6.0 | 0.00 | 0.02 | 0.00 | 70 | 1022.0 |
| 20260831153516 | 70 | 0.0 | 4.0 | 0.00 | 0.02 | 0.00 | 73 | 1022.1 | |
| 20260831153016 | 69 | 293 | 1.0 | 4.0 | 0.00 | 0.02 | 0.00 | 75 | 1022.1 |
| 20260831152516 | 70 | 293 | 2.0 | 5.0 | 0.00 | 0.02 | 0.00 | 72 | 1022.1 |
| 20260831152016 | 69 | 158 | 1.0 | 4.0 | 0.00 | 0.02 | 0.00 | 77 | 1021.9 |
| 20260831151517 | 68 | 203 | 1.0 | 6.0 | 0.00 | 0.02 | 0.00 | 76 | 1021.9 |
| 20260831151016 | 68 | 338 | 1.0 | 4.0 | 0.00 | 0.02 | 0.00 | 78 | 1021.9 |
| 20260831150516 | 68 | 315 | 3.0 | 6.0 | 0.00 | 0.02 | 0.00 | 78 | 1021.9 |
| 20260831150036 | 68 | 315 | 2.0 | 4.0 | 0.00 | 0.02 | 0.00 | 77 | 1021.9 |
| 20260831145517 | 68 | 315 | 1.0 | 4.0 | 0.00 | 0.02 | 0.00 | 80 | 1021.8 |
| 20260831145016 | 68 | 315 | 3.0 | 7.0 | 0.00 | 0.02 | 0.00 | 75 | 1021.9 |
| 20260831144517 | 68 | 0.0 | 2.0 | 0.00 | 0.02 | 0.00 | 80 | 1021.8 | |
| 20260831144016 | 68 | 315 | 1.0 | 5.0 | 0.00 | 0.02 | 0.00 | 78 | 1021.9 |
| 20260831143517 | 67 | 0.0 | 2.0 | 0.00 | 0.02 | 0.00 | 78 | 1021.9 | |
| 20260831143017 | 67 | 315 | 3.0 | 5.0 | 0.00 | 0.02 | 0.00 | 79 | 1022.0 |
| 20260831142517 | 67 | 135 | 1.0 | 3.0 | 0.00 | 0.02 | 0.00 | 83 | 1022.0 |
| 20260831142016 | 66 | 68 | 1.0 | 3.0 | 0.00 | 0.02 | 0.00 | 81 | 1022.0 |
| 20260831141516 | 66 | 315 | 2.0 | 5.0 | 0.00 | 0.02 | 0.00 | 84 | 1022.1 |
| 20260831141016 | 66 | 225 | 2.0 | 4.0 | 0.00 | 0.02 | 0.00 | 86 | 1022.0 |
| 20260831140516 | 66 | 293 | 1.0 | 5.0 | 0.00 | 0.02 | 0.00 | 85 | 1022.0 |
| 20260831140016 | 67 | 338 | 1.0 | 5.0 | 0.00 | 0.02 | 0.00 | 84 | 1022.0 |
| 20260831135517 | 66 | 135 | 2.0 | 5.0 | 0.00 | 0.02 | 0.00 | 84 | 1022.0 |
| 20260831135037 | 66 | 293 | 1.0 | 4.0 | 0.00 | 0.02 | 0.00 | 87 | 1021.9 |
| 20260831134536 | 66 | 315 | 2.0 | 5.0 | 0.00 | 0.02 | 0.00 | 81 | 1021.9 |
| 20260831134016 | 67 | 293 | 2.0 | 5.0 | 0.00 | 0.02 | 0.00 | 80 | 1021.9 |
| 20260831133517 | 66 | 0.0 | 2.0 | 0.00 | 0.02 | 0.00 | 89 | 1021.8 | |
| 20260831133017 | 65 | 135 | 1.0 | 3.0 | 0.00 | 0.02 | 0.00 | 87 | 1021.8 |
| 20260831132516 | 64 | 248 | 1.0 | 3.0 | 0.00 | 0.02 | 0.00 | 88 | 1021.8 |
| 20260831132017 | 64 | 0.0 | 1.0 | 0.00 | 0.02 | 0.00 | 87 | 1021.9 | |
| 20260831131516 | 64 | 0.0 | 2.0 | 0.00 | 0.02 | 0.00 | 87 | 1021.9 | |
| 20260831131016 | 63 | 0.0 | 2.0 | 0.00 | 0.02 | 0.00 | 89 | 1021.9 | |
| 20260831130516 | 62 | 0.0 | 1.0 | 0.00 | 0.02 | 0.00 | 90 | 1021.9 | |
| 20260831130036 | 61 | 0.0 | 4.0 | 0.00 | 0.02 | 0.00 | 93 | 1022.0 | |
| 20260831125536 | 61 | 315 | 2.0 | 4.0 | 0.00 | 0.02 | 0.00 | 94 | 1022.0 |
| 20260831125016 | 60 | 315 | 2.0 | 5.0 | 0.00 | 0.02 | 0.00 | 95 | 1022.0 |
| 20260831124516 | 60 | 315 | 1.0 | 4.0 | 0.00 | 0.02 | 0.00 | 96 | 1022.0 |
| 20260831124017 | 59 | 315 | 1.0 | 3.0 | 0.00 | 0.02 | 0.00 | 97 | 1022.0 |
| 20260831123517 | 59 | 293 | 1.0 | 2.0 | 0.00 | 0.02 | 0.00 | 98 | 1022.1 |
| 20260831123016 | 59 | 0.0 | 2.0 | 0.00 | 0.02 | 0.00 | 98 | 1022.2 | |
| 20260831122517 | 58 | 0.0 | 0.0 | 0.00 | 0.02 | 0.00 | 99 | 1022.0 | |
| 20260831122017 | 58 | 293 | 1.0 | 3.0 | 0.00 | 0.02 | 0.00 | 99 | 1022.0 |
| 20260831121517 | 58 | 0.0 | 3.0 | 0.00 | 0.02 | 0.00 | 100 | 1022.0 | |
| 20260831121016 | 58 | 0.0 | 0.0 | 0.00 | 0.02 | 0.00 | 100 | 1022.0 | |
| 20260831120517 | 57 | 0.0 | 0.0 | 0.00 | 0.02 | 0.00 | 100 | 1022.1 | |
| 20260831120036 | 57 | 0.0 | 1.0 | 0.00 | 0.02 | 0.00 | 99 | 1022.2 | |
| 20260831115516 | 57 | 315 | 1.0 | 3.0 | 0.00 | 0.02 | 0.00 | 99 | 1022.3 |
| 20260831115016 | 57 | 0.0 | 1.0 | 0.00 | 0.02 | 0.00 | 100 | 1022.3 | |
| 20260831114536 | 57 | 0.0 | 2.0 | 0.00 | 0.02 | 0.00 | 100 | 1022.3 | |
| 20260831114017 | 57 | 0.0 | 1.0 | 0.00 | 0.02 | 0.00 | 100 | 1022.2 | |
| 20260831113517 | 57 | 0.0 | 1.0 | 0.00 | 0.02 | 0.00 | 100 | 1022.1 | |
| 20260831113016 | 56 | 0.0 | 0.0 | 0.00 | 0.02 | 0.00 | 100 | 1022.1 | |
| 20260831112516 | 56 | 0.0 | 0.0 | 0.00 | 0.02 | 0.00 | 100 | 1022.0 | |
| 20260831112016 | 55 | 0.0 | 2.0 | 0.00 | 0.02 | 0.00 | 100 | 1022.0 | |
| 20260831111516 | 55 | 0.0 | 0.0 | 0.00 | 0.02 | 0.00 | 100 | 1021.9 | |
| 20260831111016 | 55 | 0.0 | 0.0 | 0.00 | 0.02 | 0.00 | 99 | 1021.9 | |
| 20260831110537 | 55 | 0.0 | 0.0 | 0.00 | 0.02 | 0.00 | 99 | 1021.8 | |
| 20260831110036 | 55 | 0.0 | 0.0 | 0.00 | 0.02 | 0.00 | 99 | 1021.8 | |
| 20260831105517 | 55 | 0.0 | 0.0 | 0.00 | 0.02 | 0.00 | 99 | 1021.7 | |
| 20260831105017 | 55 | 0.0 | 0.0 | 0.00 | 0.02 | 0.00 | 99 | 1021.6 | |
| 20260831104516 | 55 | 0.0 | 1.0 | 0.00 | 0.02 | 0.00 | 99 | 1021.6 | |
| 20260831104017 | 55 | 0.0 | 1.0 | 0.00 | 0.02 | 0.00 | 99 | 1021.5 | |
| 20260831103537 | 56 | 0.0 | 2.0 | 0.00 | 0.02 | 0.00 | 100 | 1021.5 | |
| 20260831103016 | 56 | 0.0 | 1.0 | 0.00 | 0.02 | 0.00 | 100 | 1021.5 | |
| 20260831102537 | 56 | 0.0 | 1.0 | 0.00 | 0.02 | 0.00 | 100 | 1021.5 | |
| 20260831102017 | 56 | 0.0 | 0.0 | 0.00 | 0.02 | 0.00 | 100 | 1021.5 | |
| 20260831101517 | 56 | 0.0 | 0.0 | 0.00 | 0.02 | 0.00 | 100 | 1021.5 | |
| 20260831101036 | 56 | 0.0 | 0.0 | 0.00 | 0.02 | 0.00 | 100 | 1021.5 | |
| 20260831100537 | 56 | 0.0 | 0.0 | 0.00 | 0.02 | 0.00 | 100 | 1021.4 | |
| 20260831100036 | 56 | 0.0 | 0.0 | 0.00 | 0.02 | 0.00 | 100 | 1021.4 | |
| 20260831095517 | 56 | 0.0 | 0.0 | 0.00 | 0.02 | 0.00 | 100 | 1021.4 | |
| 20260831095017 | 56 | 0.0 | 0.0 | 0.00 | 0.02 | 0.00 | 100 | 1021.4 | |
| 20260831094516 | 56 | 0.0 | 0.0 | 0.00 | 0.02 | 0.00 | 100 | 1021.3 | |
| 20260831094037 | 56 | 0.0 | 0.0 | 0.00 | 0.02 | 0.00 | 100 | 1021.3 | |
| 20260831093516 | 56 | 0.0 | 0.0 | 0.00 | 0.02 | 0.00 | 100 | 1021.3 | |
| 20260831093017 | 56 | 0.0 | 0.0 | 0.00 | 0.02 | 0.00 | 100 | 1021.3 | |
| 20260831092536 | 56 | 0.0 | 0.0 | 0.00 | 0.02 | 0.00 | 100 | 1021.3 | |
| 20260831092016 | 56 | 0.0 | 0.0 | 0.00 | 0.02 | 0.00 | 100 | 1021.3 | |
| 20260831091516 | 56 | 0.0 | 0.0 | 0.00 | 0.02 | 0.00 | 100 | 1021.3 | |
| 20260831091017 | 56 | 0.0 | 0.0 | 0.00 | 0.02 | 0.00 | 100 | 1021.2 | |
| 20260831090537 | 56 | 0.0 | 0.0 | 0.00 | 0.02 | 0.00 | 100 | 1021.2 | |
| 20260831090017 | 56 | 0.0 | 0.0 | 0.00 | 0.02 | 0.00 | 100 | 1021.0 | |
| 20260831085517 | 56 | 0.0 | 0.0 | 0.00 | 0.02 | 0.00 | 100 | 1021.0 | |
| 20260831085016 | 56 | 0.0 | 0.0 | 0.00 | 0.02 | 0.00 | 100 | 1021.0 | |
| 20260831084517 | 56 | 0.0 | 0.0 | 0.00 | 0.02 | 0.00 | 100 | 1021.0 | |
| 20260831084017 | 55 | 0.0 | 0.0 | 0.00 | 0.02 | 0.00 | 100 | 1020.9 | |
| 20260831083517 | 55 | 0.0 | 0.0 | 0.00 | 0.02 | 0.00 | 100 | 1021.0 | |
| 20260831083036 | 55 | 0.0 | 0.0 | 0.00 | 0.02 | 0.00 | 100 | 1020.9 | |
| 20260831082517 | 55 | 0.0 | 0.0 | 0.00 | 0.02 | 0.00 | 99 | 1021.0 | |
| 20260831082017 | 55 | 0.0 | 0.0 | 0.00 | 0.02 | 0.00 | 99 | 1021.0 | |
| 20260831081516 | 55 | 0.0 | 0.0 | 0.00 | 0.02 | 0.00 | 99 | 1021.0 | |
| 20260831081017 | 55 | 0.0 | 0.0 | 0.00 | 0.02 | 0.00 | 99 | 1021.0 | |
| 20260831080517 | 55 | 0.0 | 0.0 | 0.00 | 0.02 | 0.00 | 99 | 1021.0 | |
| 20260831080017 | 56 | 0.0 | 0.0 | 0.00 | 0.02 | 0.00 | 99 | 1020.9 | |
| 20260831075517 | 56 | 0.0 | 0.0 | 0.00 | 0.02 | 0.00 | 99 | 1020.8 | |
| 20260831075017 | 56 | 0.0 | 0.0 | 0.00 | 0.02 | 0.00 | 99 | 1020.8 | |
| 20260831074517 | 56 | 0.0 | 0.0 | 0.00 | 0.02 | 0.00 | 99 | 1020.8 | |
| 20260831074016 | 56 | 0.0 | 0.0 | 0.00 | 0.02 | 0.00 | 99 | 1020.8 | |
| 20260831073516 | 56 | 0.0 | 0.0 | 0.00 | 0.02 | 0.00 | 99 | 1020.8 | |
| 20260831073037 | 56 | 0.0 | 0.0 | 0.00 | 0.02 | 0.00 | 99 | 1020.7 | |
| 20260831072517 | 57 | 0.0 | 0.0 | 0.00 | 0.02 | 0.00 | 99 | 1020.8 | |
| 20260831072016 | 57 | 0.0 | 0.0 | 0.00 | 0.02 | 0.00 | 99 | 1020.7 | |
| 20260831071517 | 57 | 0.0 | 0.0 | 0.00 | 0.02 | 0.00 | 99 | 1020.7 | |
| 20260831071037 | 57 | 0.0 | 0.0 | 0.00 | 0.02 | 0.00 | 99 | 1020.6 | |
| 20260831070557 | 57 | 0.0 | 0.0 | 0.00 | 0.02 | 0.00 | 99 | 1020.6 | |
| 20260831070017 | 58 | 0.0 | 0.0 | 0.00 | 0.02 | 0.00 | 99 | 1020.5 | |
| 20260831065517 | 58 | 0.0 | 0.0 | 0.00 | 0.02 | 0.00 | 99 | 1020.5 | |
| 20260831065037 | 58 | 0.0 | 0.0 | 0.00 | 0.02 | 0.00 | 99 | 1020.5 | |
| 20260831064517 | 58 | 0.0 | 0.0 | 0.00 | 0.02 | 0.00 | 99 | 1020.5 | |
| 20260831064017 | 59 | 0.0 | 0.0 | 0.00 | 0.02 | 0.00 | 99 | 1020.4 | |
| 20260831063517 | 59 | 0.0 | 0.0 | 0.00 | 0.02 | 0.00 | 99 | 1020.5 | |
| 20260831063017 | 59 | 0.0 | 0.0 | 0.00 | 0.02 | 0.00 | 99 | 1020.4 | |
| 20260831062537 | 59 | 0.0 | 0.0 | 0.00 | 0.02 | 0.00 | 99 | 1020.4 | |
| 20260831062017 | 59 | 0.0 | 0.0 | 0.00 | 0.02 | 0.00 | 99 | 1020.5 | |
| 20260831061517 | 59 | 0.0 | 0.0 | 0.00 | 0.02 | 0.00 | 99 | 1020.5 | |
| 20260831061017 | 59 | 0.0 | 0.0 | 0.00 | 0.02 | 0.00 | 99 | 1020.6 | |
| 20260831060517 | 59 | 0.0 | 0.0 | 0.00 | 0.02 | 0.00 | 99 | 1020.6 | |
| 20260831060017 | 59 | 0.0 | 0.0 | 0.00 | 0.02 | 0.00 | 99 | 1020.7 | |
| 20260831055517 | 59 | 0.0 | 0.0 | 0.00 | 0.02 | 0.00 | 98 | 1020.6 | |
| 20260831055037 | 59 | 0.0 | 0.0 | 0.00 | 0.02 | 0.00 | 98 | 1020.7 | |
| 20260831054517 | 59 | 0.0 | 0.0 | 0.00 | 0.02 | 0.00 | 98 | 1020.6 | |
| 20260831054017 | 60 | 0.0 | 0.0 | 0.00 | 0.02 | 0.00 | 98 | 1020.6 | |
| 20260831053517 | 60 | 0.0 | 0.0 | 0.00 | 0.02 | 0.00 | 98 | 1020.7 | |
| 20260831053017 | 60 | 0.0 | 0.0 | 0.00 | 0.02 | 0.00 | 98 | 1020.7 | |
| 20260831052536 | 60 | 0.0 | 0.0 | 0.00 | 0.02 | 0.00 | 97 | 1020.7 | |
| 20260831052037 | 60 | 0.0 | 0.0 | 0.00 | 0.02 | 0.00 | 97 | 1020.6 | |
| 20260831051517 | 60 | 0.0 | 0.0 | 0.00 | 0.02 | 0.00 | 97 | 1020.6 | |
| 20260831051017 | 61 | 0.0 | 0.0 | 0.00 | 0.02 | 0.00 | 97 | 1020.5 | |
| 20260831050517 | 61 | 0.0 | 0.0 | 0.00 | 0.02 | 0.00 | 97 | 1020.6 | |
| 20260831050017 | 61 | 0.0 | 0.0 | 0.00 | 0.02 | 0.00 | 97 | 1020.6 | |
| 20260831045517 | 61 | 0.0 | 0.0 | 0.00 | 0.02 | 0.00 | 97 | 1020.6 | |
| 20260831045048 | 61 | 0.0 | 0.0 | 0.00 | 0.02 | 0.00 | 96 | 1020.6 | |
| 20260831044517 | 61 | 0.0 | 2.0 | 0.00 | 0.02 | 0.00 | 97 | 1020.5 | |
| 20260831044017 | 61 | 0.0 | 0.0 | 0.00 | 0.02 | 0.00 | 96 | 1020.5 | |
| 20260831043517 | 61 | 0.0 | 0.0 | 0.00 | 0.02 | 0.00 | 96 | 1020.5 | |
| 20260831043017 | 61 | 0.0 | 0.0 | 0.00 | 0.02 | 0.00 | 96 | 1020.4 | |
| 20260831042516 | 61 | 0.0 | 0.0 | 0.00 | 0.02 | 0.00 | 96 | 1020.4 | |
| 20260831042036 | 61 | 0.0 | 0.0 | 0.00 | 0.02 | 0.00 | 96 | 1020.4 | |
| 20260831041517 | 61 | 0.0 | 0.0 | 0.00 | 0.02 | 0.00 | 96 | 1020.3 | |
| 20260831041017 | 61 | 0.0 | 0.0 | 0.00 | 0.02 | 0.00 | 96 | 1020.3 | |
| 20260831040517 | 61 | 0.0 | 0.0 | 0.00 | 0.02 | 0.00 | 96 | 1020.3 | |
| 20260831040017 | 61 | 0.0 | 1.0 | 0.00 | 0.02 | 0.00 | 96 | 1020.3 | |
| 20260831035517 | 61 | 0.0 | 1.0 | 0.00 | 0.02 | 0.02 | 96 | 1020.3 | |
| 20260831035037 | 61 | 0.0 | 0.0 | 0.00 | 0.02 | 0.02 | 96 | 1020.3 | |
| 20260831034517 | 61 | 0.0 | 0.0 | 0.00 | 0.02 | 0.02 | 96 | 1020.2 | |
| 20260831034017 | 61 | 0.0 | 1.0 | 0.00 | 0.02 | 0.02 | 96 | 1020.3 | |
| 20260831033517 | 61 | 0.0 | 0.0 | 0.00 | 0.02 | 0.02 | 96 | 1020.3 | |
| 20260831033017 | 61 | 0.0 | 0.0 | 0.00 | 0.02 | 0.02 | 96 | 1020.2 | |
| 20260831032517 | 61 | 0.0 | 0.0 | 0.00 | 0.02 | 0.02 | 96 | 1020.2 | |
| 20260831032037 | 61 | 0.0 | 1.0 | 0.00 | 0.02 | 0.02 | 96 | 1020.3 | |
| 20260831031517 | 61 | 0.0 | 1.0 | 0.00 | 0.02 | 0.02 | 96 | 1020.3 | |
| 20260831031017 | 61 | 0.0 | 0.0 | 0.00 | 0.02 | 0.02 | 96 | 1020.2 | |
| 20260831030517 | 61 | 0.0 | 0.0 | 0.00 | 0.02 | 0.02 | 96 | 1020.2 | |
| 20260831030016 | 61 | 0.0 | 1.0 | 0.00 | 0.02 | 0.02 | 96 | 1020.2 | |
| 20260831025516 | 62 | 0.0 | 0.0 | 0.00 | 0.02 | 0.02 | 96 | 1020.1 | |
| 20260831025017 | 61 | 0.0 | 1.0 | 0.00 | 0.02 | 0.02 | 95 | 1020.2 | |
| 20260831024537 | 61 | 0.0 | 0.0 | 0.00 | 0.02 | 0.02 | 96 | 1020.2 | |
| 20260831024017 | 61 | 0.0 | 1.0 | 0.00 | 0.02 | 0.02 | 96 | 1020.3 | |
| 20260831023537 | 61 | 0.0 | 1.0 | 0.00 | 0.02 | 0.02 | 96 | 1020.3 | |
| 20260831023017 | 61 | 0.0 | 0.0 | 0.00 | 0.02 | 0.02 | 96 | 1020.1 | |
| 20260831022517 | 61 | 0.0 | 0.0 | 0.00 | 0.02 | 0.02 | 96 | 1020.2 | |
| 20260831022017 | 61 | 0.0 | 1.0 | 0.00 | 0.02 | 0.02 | 95 | 1020.1 | |
| 20260831021517 | 62 | 0.0 | 0.0 | 0.00 | 0.02 | 0.02 | 95 | 1020.1 | |
| 20260831021017 | 62 | 0.0 | 0.0 | 0.00 | 0.02 | 0.02 | 95 | 1020.1 | |
| 20260831020517 | 62 | 0.0 | 0.0 | 0.00 | 0.02 | 0.02 | 95 | 1020.1 | |
| 20260831020017 | 62 | 315 | 1.0 | 2.0 | 0.00 | 0.02 | 0.02 | 95 | 1020.1 |
| 20260831015517 | 62 | 0.0 | 1.0 | 0.00 | 0.02 | 0.02 | 95 | 1020.2 | |
| 20260831015017 | 62 | 0.0 | 1.0 | 0.00 | 0.02 | 0.02 | 95 | 1020.2 | |
| 20260831014517 | 62 | 0.0 | 0.0 | 0.00 | 0.02 | 0.02 | 95 | 1020.1 | |
| 20260831014016 | 62 | 0.0 | 0.0 | 0.00 | 0.02 | 0.02 | 94 | 1020.1 |